TimeEST,TemperatureF,Dew PointF,Humidity,Sea Level PressureIn,VisibilityMPH,Wind Direction,Wind SpeedMPH,Gust SpeedMPH,PrecipitationIn,Events,Conditions,WindDirDegrees,DateUTC
12:15 AM,26.6,17.6,69,30.18,10.0,West,4.6,-,N/A,,Scattered Clouds,270,2013-01-03 05:15:00
12:35 AM,26.6,17.6,69,30.18,10.0,West,3.5,-,N/A,,Clear,260,2013-01-03 05:35:00
12:55 AM,24.8,15.8,69,30.17,10.0,Calm,Calm,-,N/A,,Clear,0,2013-01-03 05:55:00
1:15 AM,24.8,15.8,69,30.17,10.0,Calm,Calm,-,N/A,,Clear,0,2013-01-03 06:15:00
1:35 AM,24.8,17.6,74,30.18,10.0,WSW,3.5,-,N/A,,Clear,240,2013-01-03 06:35:00
1:55 AM,24.8,17.6,74,30.18,10.0,Calm,Calm,-,N/A,,Clear,0,2013-01-03 06:55:00
2:15 AM,24.8,17.6,74,30.18,10.0,Calm,Calm,-,N/A,,Clear,0,2013-01-03 07:15:00
2:35 AM,24.8,17.6,74,30.18,10.0,WSW,3.5,-,N/A,,Clear,250,2013-01-03 07:35:00
2:55 AM,24.8,17.6,74,30.18,10.0,West,3.5,-,N/A,,Clear,260,2013-01-03 07:55:00
3:15 AM,24.8,17.6,74,30.18,10.0,WSW,4.6,-,N/A,,Clear,250,2013-01-03 08:15:00
3:35 AM,24.8,17.6,74,30.18,10.0,Calm,Calm,-,N/A,,Clear,0,2013-01-03 08:35:00
3:55 AM,24.8,17.6,74,30.17,10.0,Calm,Calm,-,N/A,,Clear,0,2013-01-03 08:55:00
4:15 AM,23.0,17.6,80,30.17,10.0,Calm,Calm,-,N/A,,Clear,0,2013-01-03 09:15:00
4:35 AM,24.8,17.6,74,30.17,10.0,Calm,Calm,-,N/A,,Clear,0,2013-01-03 09:35:00
4:55 AM,23.0,17.6,80,30.17,10.0,Calm,Calm,-,N/A,,Clear,0,2013-01-03 09:55:00
5:15 AM,23.0,17.6,80,30.18,10.0,Calm,Calm,-,N/A,,Clear,0,2013-01-03 10:15:00
5:35 AM,23.0,17.6,80,30.17,10.0,Calm,Calm,-,N/A,,Clear,0,2013-01-03 10:35:00
6:45 AM,21.2,17.6,86,30.19,10.0,NNW,3.5,-,N/A,,Scattered Clouds,340,2013-01-03 11:45:00
7:45 AM,19.4,17.6,93,30.18,10.0,Calm,Calm,-,N/A,,Scattered Clouds,0,2013-01-03 12:45:00
8:45 AM,21.2,19.4,93,30.19,10.0,Calm,Calm,-,N/A,,Scattered Clouds,0,2013-01-03 13:45:00
9:45 AM,24.8,17.6,74,30.20,10.0,WNW,8.1,-,N/A,,Scattered Clouds,300,2013-01-03 14:45:00
10:45 AM,28.4,15.8,59,30.19,10.0,NW,9.2,-,N/A,,Scattered Clouds,310,2013-01-03 15:45:00
11:45 AM,30.2,15.8,55,30.15,10.0,NW,4.6,-,N/A,,Scattered Clouds,310,2013-01-03 16:45:00
12:45 PM,30.2,15.8,55,30.12,10.0,WNW,10.4,16.1,N/A,,Scattered Clouds,290,2013-01-03 17:45:00
1:45 PM,32.0,15.8,51,30.09,10.0,West,10.4,18.4,N/A,,Partly Cloudy,270,2013-01-03 18:45:00
2:45 PM,32.0,14.0,48,30.08,10.0,WSW,6.9,-,N/A,,Clear,250,2013-01-03 19:45:00
3:45 PM,32.0,15.8,51,30.08,10.0,WSW,11.5,-,N/A,,Clear,250,2013-01-03 20:45:00
4:45 PM,30.2,15.8,55,30.09,10.0,West,6.9,-,N/A,,Partly Cloudy,260,2013-01-03 21:45:00
5:45 PM,28.4,15.8,59,30.09,10.0,WSW,5.8,-,N/A,,Clear,240,2013-01-03 22:45:00
6:45 PM,30.2,15.8,55,30.10,10.0,WSW,8.1,-,N/A,,Mostly Cloudy,250,2013-01-03 23:45:00
7:45 PM,30.2,17.6,60,30.11,10.0,WSW,5.8,-,N/A,,Mostly Cloudy,250,2013-01-04 00:45:00
8:45 PM,28.4,17.6,64,30.10,10.0,Calm,Calm,-,N/A,,Overcast,0,2013-01-04 01:45:00
9:45 PM,30.2,17.6,60,30.09,10.0,West,8.1,-,N/A,,Overcast,270,2013-01-04 02:45:00
9:55 PM,30.2,19.4,64,30.09,10.0,West,9.2,-,N/A,,Overcast,270,2013-01-04 02:55:00
10:15 PM,30.2,19.4,64,30.09,10.0,West,5.8,-,N/A,,Overcast,260,2013-01-04 03:15:00
10:35 PM,30.2,19.4,64,30.09,10.0,WSW,5.8,-,N/A,,Overcast,250,2013-01-04 03:35:00
10:55 PM,32.0,21.2,64,30.08,10.0,WSW,8.1,-,N/A,,Overcast,250,2013-01-04 03:55:00
11:15 PM,30.2,19.4,64,30.08,10.0,SW,5.8,-,N/A,,Overcast,230,2013-01-04 04:15:00
11:35 PM,30.2,21.2,69,30.07,10.0,SSW,3.5,-,N/A,,Overcast,210,2013-01-04 04:35:00
11:55 PM,30.2,21.2,69,30.06,10.0,WSW,6.9,-,N/A,,Overcast,240,2013-01-04 04:55:00